www.pogodaiklimat.ru

Погода и климат >> Архив погоды >> Россия >> Красноярский край >> Сопочная Карга


ПОГОДА в Сопочной Карге

  • Прогноз погоды в Сопочной Карге
  • Монитор погоды в Сопочной Карге

АРХИВ ПОГОДЫ в Сопочной Карге

Время (UTC), дата Ветер
(напр.,м/с)
 
Видим.   Явления Облачность Т
(С)
Тd
(С)
f
(%)
Тe
(С)
Тes
(С)
Комфортность P
(гПа)
Po
(гПа)
Тmin
(С)
Tmax
(С)
R
(мм)
R24
(мм)
S
(см)
06 13.09 СВ 6
{10}
20 км 9/9 600 м
[Sc]
-0.8 -3.3 83 -8 -7 1016.8 1016.1
09 13.09 СВ 6 20 км 9/9 600 м
[Sc]
-0.1 -2.8 82 -7 -7 1017.0 1016.3
12 13.09 СВ 6 20 км 10/10 600 м
[Sc]
-0.3 -3.7 78 -7 -7 1017.0 1016.3 -0.1
15 13.09 СВ 5 20 км 10/8 300 м
[Sc Ac und]
-0.8 -3.6 81 -7 -7 1016.9 1016.2
18 13.09 СВ 5 20 км 10/10 300 м
[Sc]
-0.9 -3.1 85 -7 -7 1016.7 1016.0
21 13.09 С 3 20 км 9/6 300 м
[Sc Ac trans]
-0.9 -2.1 92 -6 -6 1016.0 1015.3
00 14.09 С 3 20 км 10/4 300 м
[Sc Ac und]
-0.6 -1.8 92 -6 -6 1015.4 1014.7 -1.2
03 14.09 С 3 20 км 10/10 600 м
[Sc]
+1.1 -0.6 88 -3 -3 1014.6 1013.9
06 14.09 СВ 4 20 км 10/3 600 м
[Sc Ac und]
+2.8 +0.1 82 -2 -2 1014.2 1013.5
09 14.09 С 4 20 км 10/5 600 м
[Sc Ac und]
+4.0 -1.5 67 -0 0 1014.1 1013.4
12 14.09 С 4 20 км 10/5 600 м
[Sc Ac und]
+3.2 +0.3 81 -1 -1 1013.9 1013.2 +4.3
15 14.09 С 3 20 км 3/0
[Ac trans]
+0.2 -1.8 86 -4 -4 1014.0 1013.3
18 14.09 С 5 20 км 4/0
[Ac trans]
-0.1 -1.6 90 -6 -6 1013.6 1012.9
21 14.09 С 4 20 км 9/5 300 м
[Sc Ac trans]
-0.2 -1.4 92 -6 -6 1013.2 1012.5
00 15.09 СВ 4 20 км 10/6
[Sc Ac und]
-0.2 -1.4 92 -6 -6 1013.1 1012.4 -1.0
03 15.09 СВ 4 20 км 10/6 300 м
[Sc Ac und]
+0.2 -1.2 90 -5 -5 1012.8 1012.1
06 15.09 В 5 20 км 10/10 300 м
[Sc]
+1.0 -0.4 90 -5 -5 1013.1 1012.4
09 15.09 В 5 20 км 9/9 600 м
[Sc]
+1.7 -0.5 85 -4 -4 1013.9 1013.2
12 15.09 В 6 20 км 8/8 600 м
[Cu hum]
+2.6 -0.1 82 -3 -3 1014.2 1013.5 +3.0
15 15.09 В 7
{10}
20 км 4/4 600 м
[Cu med, cong]
+1.9 0.0 87 -5 -5 1014.5 1013.8
18 15.09 В 5 20 км 3/3 600 м
[Cu hum]
+1.5 -0.1 89 -4 -4 1014.7 1014.0
21 15.09 СВ 4 20 км 9/6 300 м
[Sc Ac trans]
-0.7 -1.9 92 -6 -6 1014.5 1013.8
00 16.09 СВ 3 4000 м дымка 10/10 200 м
[St]
-1.6 -2.1 96 -7 -7 1014.2 1013.5 -2.0
03 16.09 В 5 20 км 9/9 300 м
[Sc]
+1.0 -0.4 90 -5 -5 1013.6 1012.9
06 16.09 В 5 20 км 10/10 600 м
[Sc]
+2.3 +0.4 87 -3 -3 1012.8 1012.1
09 16.09 В 8-10
{11}
20 км 9/9 600 м
[Sc]
+3.2 +1.1 86 -3 -3 1011.1 1010.4
12 16.09 В 10-12
{13}
20 км 10/6 600 м
[Sc Ac und]
+3.6 +1.6 87 -3 -3 1010.1 1009.4 +3.9
15 16.09 ЮВ 11-15
{16}
20 км 10/6 600 м
[Sc Ac und]
+3.4 +1.3 86 -4 -4 1008.8 1008.1
18 16.09 В 10-13
{16}
20 км 10/8 600 м
[Sc Ac und]
+3.5 +0.6 81 -3 -3 1007.1 1006.4
21 16.09 В 9-13
{14}
20 км 10/6 600 м
[Sc Ac und]
+3.2 +0.6 83 -4 -4 1005.0 1004.3
00 17.09 В 10-14
{15}
10 км слаб. дождь 10/6 200 м
[Frnb Ac As]
+1.8 +0.7 92 -6 -6 1003.1 1002.4 +1.8 0.1
03 17.09 ЮВ 11-14
{16}
4000 м слаб. морось {дождь} 10/10 200 м
[St]
+2.1 +1.0 92 -6 -6 1001.4 1000.7 +1.6
06 17.09 ЮВ 7
{14}
4000 м дымка {дождь} 10/10 200 м
[St]
+3.1 +2.1 93 -3 -3 1000.3 999.6
09 17.09 ЮВ 5
{10}
20 км 10/10 300 м
[St]
+4.3 +2.8 90 -1 -1 999.4 998.7
12 17.09 ЮВ 5 20 км 10/10 300 м
[Sc]
+4.8 +3.4 91 -0 -0 998.6 997.9 +4.8 0.3
15 17.09 В 4
{10}
10 км слаб. дождь 10/8 200 м
[Frnb Ac As]
+2.9 +1.9 93 -2 -2 997.7 997.0
18 17.09 С 3 4000 м дымка {дождь} 10/10 200 м
[St]
+2.1 +1.3 94 -2 -2 997.5 996.8
21 17.09 СВ 2 20 км 10/10 300 м
[Sc]
+2.5 +1.2 91 -1 -1 998.4 997.7
00 18.09 СВ 4 20 км 10/10 300 м
[Sc]
+1.7 +0.3 90 -3 -3 998.7 998.0 +1.7 0.6
03 18.09 СВ 3 20 км 10/5 300 м
[Sc Ac und]
+0.6 -0.8 90 -4 -4 999.3 998.6 +0.5
06 18.09 СВ 4 20 км 10/5 600 м
[Sc Ac und]
+2.9 +1.3 89 -2 -2 998.8 998.1
09 18.09 С 4 10 км слаб. дождь 10/8 200 м
[Frnb Ac As]
+3.9 +2.9 93 -1 -1 998.5 997.8
12 18.09 СВ 5 10 км слаб. дождь 10/8 200 м
[Frnb Ac As]
+4.5 +3.8 95 -1 -1 997.6 996.9 +4.5 4
15 18.09 ЮВ 4 10 км слаб. дождь 10/8 200 м
[Frnb Ac As]
+7.7 +7.1 96 +4 +4 997.0 996.3
18 18.09 Ю 4 2000 м дымка {дождь} 10/10 200 м
[St]
+7.3 +6.9 97 +4 +4 997.3 996.6
21 18.09 З 8 4000 м слаб. морось 10/10 200 м
[St]
+5.5 +5.0 97 -0 -0 998.4 997.7
00 19.09 ЮЗ 9-11
{11}
10 км слаб. дождь {морось} 10/6 200 м
[Frnb Ac As]
+4.6 +3.9 95 -2 -2 1000.7 1000.0 +4.5 5
03 19.09 Ю 5
{12}
20 км {дождь} 10/3 200 м
[St Ac trans Ci fib]
+4.1 +2.9 92 -1 -1 1002.8 1002.1 +4.1
06 19.09 ЮВ 5 20 км {дождь} 10/10 300 м
[Sc]
+5.1 +3.7 91 0 0 1003.5 1002.8
09 19.09 ЮВ 6 20 км 8/4 600 м
[Sc Ac trans]
+7.2 +5.4 88 +3 +3 1003.2 1002.5
12 19.09 ЮВ 6 20 км 1/0
[Ac trans]
+8.1 +6.1 87 +4 +4 1002.7 1002.0 +8.3 0.0
15 19.09 ЮВ 8-10
{11}
20 км 4/0
[Ac trans]
+7.1 +5.1 87 +2 +2 1001.9 1001.2
18 19.09 В 8-10
{11}
20 км 10/0
[Ac trans Ci fib]
+5.4 +3.2 86 -0 -0 1000.6 999.9
21 19.09 В 8-11
{12}
20 км 8/0
[Ac trans Ci fib]
+4.6 +2.1 84 -1 -1 999.1 998.4
00 20.09 В 9-12
{14}
20 км 9/0
[Ac trans Ci fib]
+3.6 +1.8 88 -3 -3 997.8 997.1 +3.6
03 20.09 В 9-12
{13}
20 км 10/0
[Ac und]
+3.1 +1.6 90 -4 -4 996.5 995.8 +2.8

 

Местоположение метеостанции Сопочная Карга (Красноярский край, Россия): широта 71.87 долгота 82.70 высота над уровнем моря 5 м.

В архиве по умолчанию представлена погода в Сопочной Карге за последнюю неделю. Архивные данные за месяц целиком и за предыдущие месяцы, начиная с января 2011 года, Вы можете получить, выбрав интересующий диапазон дат из раскрывающегося списка и нажав кнопку "Ввод!".


*Определитесь, кто Вы:
робот инопланетянин человек

Внимание! Время в таблицах - всемирное. Для получения местного времени необходимо прибавить поправку, которая равна 7 ч.

Смотрите также архив погоды в соседних городах и на ближайших метеорологических станциях:

Погода в Гыде (Ямало-Ненецкий АО, Россия) (186 км)
Погода на Острове Диксон (Красноярский край, Россия) (199 км)
Погода в Карауле (Красноярский край, Россия) (200 км)
Погода в Крестах Таймырских (Красноярский край, Россия) (279 км)
Погода в Норильске (Красноярский край, Россия) (350 км)
Погода в Антипаюте (Ямало-Ненецкий АО, Россия) (379 км)
Погода в Потапово (Красноярский край, Россия) (380 км)
Погода в Тамбее (Ямало-Ненецкий АО, Россия) (382 км)
Погода в Сеяхе (Ямало-Ненецкий АО, Россия) (413 км)
Погода в Волочанке (Красноярский край, Россия) (429 км)

Пояснения к столбцам:

Ветер - указаны скорость ветра в м/с - средняя за 10 мин, порывы в срок и между сроками (в фигурных скобках) и направление, откуда дует ветер: С - северный, СВ - северо-восточный, В - восточный, ЮВ - юго-восточный, Ю - южный, ЮЗ - юго-западный, З - западный, СЗ - северо-западный.
Видимость - горизонтальная дальность видимости в метрах или километрах. При видимости от 1 до 10 км при отсутствии осадков обычно наблюдается дымка, при ухудшении видимости до 1 км и менее - туман. В сухую погоду видимость может ухудшаться дымом, пылью или мглою.
Явления - указаны атмосферные явления, наблюдавшиеся в срок или в последний час перед сроком; фигурными скобками обозначены явления, наблюдавшиеся между сроками (за 1-3 часа до срока); квадратными скобками обозначены град или гололедные отложения с указанием их диаметра в мм.
Облачность - указаны через наклонную черту общая и нижняя облачность в баллах и высота нижней границы облаков в метрах; квадратными скобками обозначены формы облаков: Ci - перистые, Cs - перисто-слоистые, Cc - перисто-кучевые, Ac - высококучевые, As - высокослоистые, Sc - слоисто-кучевые, Ns - слоисто-дождевые, Cu - кучевые, Cb - кучево-дождевые. Подробнее классификацию облаков см. в Атласе облаков (PDF).
T - Температура воздуха - температура, измеренная на высоте 2 м над землей.
Td - Температура точки росы - температура, при понижении до которой содержащийся в воздухе водяной пар достигнет насыщения.
f - Относительная влажность воздуха - влажноcть воздуха, измеренная на высоте 2 м над землей.
Te - Эффективная температура - температура, которую ощущает одетый по сезону человек в тени. Характеристика душности погоды. При расчете учитывается влияние влажности воздуха и скорости ветра на теплоощущения человека.
Tes - Эффективная температура на солнце - температура, которую ощущает человек, с поправкой на солнечный нагрев. Характеристика знойности погоды. Зависит от высоты солнца над горизонтом, облачности и скорости ветра. Ночью, в пасмурную погоду, а также при ветре 12 м/с и более поправка равна нулю.
P - Атмосферное давление - приведенное к уровню моря атмосферное давление.
Po - Атмосферное давление - измеренное на уровне метеостанции атмосферное давление.
Tmin - Минимальная температура - минимум температуры воздуха на высоте 2 м над землей.
Tmax - Максимальная температура - максимум температуры воздуха на высоте 2 м над землей.
R - Количество осадков - Количество выпавших осадков за период времени, мм. При наведении курсора мыши на число - период времени, за который выпало указанное количество осадков.
R24 - Количество осадков - Количество выпавших осадков за 24 часа, мм.
S - Снежный покров - Высота снежного покрова, см. При наведении курсора мыши на число - состояние снежного покрова и степень покрытия местности в баллах.